Location: Edoum�
(0.9447°N, 10.6482°E)
Time: 07:54:03
(UTC+00:00)

Ariane 3 Deb - Pass Details

Date: 05 October 2020
Orbit: 229 x 18408 km, 6.8° (Epoch: 21 October)

Event Time Altitude Azimuth Distance (km) Brightness Sun altitude
Exits shadow 01:37:03 30° 68° (ENE) 2,601 5.8 -52.1°
Drops below altitude 10° 01:47:34 10° 82° (E) 6,880 8.3 -49.4°
Sets 02:00:46 0° 86° (E) 11,266 9.7 -46.2°
